[[{"header":{"parameterUnit":"m.s-1","parameterCategory":1,"la1":30.2991,"la2":30.254,"lo1":-89.0895,"lo2":-89.0444,"dy":0.0017,"dx":0.0017,"nx":28,"ny":28,"refTime":"2024-04-22T09:00:00:Z","depth":0,"parameterNumber":2,"parameterNumberName":"U-component_of_WINDS"},"data":[0,0,0,0,0,0,0,0,0,0,0,0,0,0,0,0,0,0,0,0,0,0,0,0,0,0,0,0,0,0,0,0,0,0,0,0,0,0,0,0,0,0,0,0,0,0,0,0,0,0,0,0,0,0,0,0,0,0,-3.9068,-3.9069,0,-3.9169,-3.917,-3.9172,-3.9147,-3.9145,-3.9143,-3.9142,-3.9245,-3.925,-3.9254,0,0,0,0,0,0,0,0,0,0,0,0,0,-3.8852,-3.8856,-3.9067,-3.9069,-3.907,-3.9169,-3.917,-3.9172,-3.9148,-3.9145,-3.9143,-3.9141,-3.9244,-3.9249,-3.9255,0,0,0,0,0,0,0,0,0,0,0,0,0,-3.8949,-3.8857,-3.9067,-3.907,-3.9071,-3.9169,-3.917,-3.9172,-3.9148,-3.9145,-3.9142,-3.914,-3.9242,-3.9249,-3.9256,-3.9357,0,0,-3.9277,-3.928,0,0,0,0,0,0,0,0,-3.8943,-3.8957,-3.9068,-3.907,-3.9071,-3.9143,-3.9133,-3.9234,-3.9149,-3.9119,-3.9142,-3.9138,-3.9214,-3.9223,-3.9248,-3.9362,-3.9366,-3.9277,-3.9281,-3.9284,-3.9286,0,0,0,0,0,0,0,-3.8937,-3.8952,-3.9108,-3.907,-3.9072,-3.9066,-3.9076,-3.9152,-3.9181,-3.9121,-3.912,-3.9132,-3.9214,-3.9242,-3.925,-3.9368,-3.9277,-3.9283,-3.9287,-3.929,-3.9569,-3.9572,0,0,0,0,0,0,-3.8929,-3.8947,-3.9104,-3.9111,-3.8999,-3.9072,-3.9084,-3.9123,-3.9181,-3.9187,-3.9135,-3.9131,-3.9231,-3.9242,-3.9254,-3.9375,-3.9284,-3.9291,-3.9295,-3.9565,-3.9569,-3.9573,0,0,0,0,0,0,-3.8924,-3.8943,-3.91,-3.9029,-3.9048,-3.9079,-3.9123,-3.9126,-3.9154,-3.9191,-3.9196,-3.9157,-3.9229,-3.9244,-3.9331,-3.9379,-3.9294,-3.93,-3.9562,-3.9567,-3.9571,-3.9619,0,0,0,0,0,0,-3.8918,-3.8942,-3.898,-3.903,-3.9052,-3.9176,-3.9126,-3.913,-3.9166,-3.9162,-3.9213,-3.9219,-3.9228,-3.9321,-3.9338,-3.9386,-3.9306,-3.9557,-3.9564,-3.957,-3.9613,-3.9625,-3.9635,0,0,0,0,0,-3.8911,-3.899,-3.8982,-3.9001,-3.9101,-3.9179,-3.9192,-3.9201,-3.917,-3.9209,-3.9232,-3.9217,-3.9371,-3.933,-3.9349,-3.94,-3.9554,-3.9562,-3.9569,-3.9609,-3.9623,-3.9635,0,0,0,0,0,0,-3.8945,-3.8996,-3.8989,-3.9086,-3.9128,-3.9175,-3.9224,-3.9216,-3.9267,-3.9261,-3.927,-3.9282,-3.9371,-3.9394,-3.9348,-3.9501,-3.9458,-3.947,-3.9482,-3.9496,-3.9506,-3.9498,-3.9311,0,0,0,0,0,-3.8964,-3.9023,-3.9065,-3.9147,-3.9169,-3.9193,-3.9227,-3.923,-3.9274,-3.9292,-3.9322,-3.9365,-3.9423,-3.9461,-3.9516,-3.9618,-3.9628,-3.9662,-3.9673,-3.9682,-3.9691,-3.9745,-3.9761,-3.9597,-3.9597,-3.9597,0,0,-3.9004,-3.9039,-3.9076,-3.9155,-3.9188,-3.9248,-3.9208,-3.9274,-3.9319,-3.9302,-3.9385,-3.9409,-3.9458,-3.9552,-3.9595,-3.9575,-3.9739,-3.9691,-3.9698,-3.9702,-3.9754,-3.977,-3.9784,-3.9602,-3.9601,-3.96,0,0,-3.9107,-3.914,-3.9212,-3.9246,-3.9296,-3.9312,-3.933,-3.9377,-3.9392,-3.9477,-3.9465,-3.9519,-3.9619,-3.9654,-3.9685,-3.9802,-3.979,-3.982,-3.9876,-3.9929,-3.9941,-3.9953,-3.9993,-4.0008,-3.9829,-3.983,-3.983,0,-3.915,-3.9241,-3.925,-3.9317,-3.9351,-3.934,-3.9412,-3.9445,-3.9511,-3.9535,-3.9511,-3.9636,-3.9668,-3.977,-3.9799,-3.9825,-3.9844,-3.9813,-3.9939,-3.995,-3.9961,-4.0,-4.0015,-3.9833,-3.9832,-3.9832,-3.9832,0,-3.929,-3.9354,-3.9405,-3.9469,-3.951,-3.958,-3.9599,-3.9639,-3.964,-3.9658,-3.9744,-3.9782,-3.9844,-3.9869,-3.987,-3.9972,-3.9957,-3.9937,-3.9893,-3.998,-4.0016,-4.0031,-3.9837,-3.9836,-3.9835,-3.9834,0,0,-3.9417,-3.9485,-3.9504,-3.9532,-3.9588,-3.9637,-3.9706,-3.9767,-3.9801,-3.9848,-3.9905,-3.999,-3.9971,-4.0006,-4.0011,-4.0058,-4.0147,-4.0032,-4.0033,-4.005,-4.026,-4.0274,-4.0291,-4.014,-4.0143,-4.0145,-4.0255,0,-3.9523,-3.9644,-3.9655,-3.9764,-3.9822,-3.9812,-3.9872,-3.9912,-3.9931,-3.9983,-4.0005,-4.0064,-4.0036,-4.0057,-4.0103,-4.0126,-4.0189,-4.0119,-4.0193,-4.0195,-4.0179,-4.031,-4.0325,-4.0427,-4.027,-4.0272,-4.0274,0,-3.9664,-3.9714,-3.9829,-3.9875,-3.99,-3.9954,-4.0011,-4.0061,-4.0107,-4.0117,-4.0157,-4.0156,-4.0226,-4.0182,-4.0279,-4.0231,-4.0263,-4.0279,-4.0283,-4.0289,-4.0238,-4.0318,-4.046,-4.0474,-4.0297,-4.0295,-4.0293,0,-3.9743,-3.9839,-3.992,-3.9945,-4.0002,-4.004,-4.0066,-4.0108,-4.0145,-4.0195,-4.0218,-4.0276,-4.0307,-4.0352,-4.0366,-4.0333,-4.0463,-4.042,-4.0473,-4.0472,-4.0499,-4.0497,-4.0646,-4.0522,-4.0522,-4.0522,-4.0521,0,-3.986,-3.993,-3.9956,-4.0006,-4.0084,-4.0095,-4.0172,-4.0196,-4.0234,-4.0288,-4.0284,-4.0334,-4.0351,-4.0404,-4.0416,-4.0494,-4.0509,-4.0519,-4.0521,-4.0519,-4.0517,-4.0538,-4.053,-4.0526,-4.0525,-4.0524,-4.0523,0,-3.996,-3.9981,-4.0068,-4.0115,-4.0128,-4.0184,-4.0224,-4.0272,-4.029,-4.0359,-4.0375,-4.0405,-4.0467,-4.0487,-4.0562,-4.057,-4.0661,-4.0658,-4.0646,-4.0645,-4.0697,-4.0691,-4.0863,-4.0886,-4.0748,-4.075,-4.0751,0,-4.0033,-4.0086,-4.0139,-4.0175,-4.0202,-4.026,-4.0296,-4.031,-4.0349,-4.0405,-4.0446,-4.0508,-4.0558,-4.0659,-4.0687,-4.0745,-4.0741,-4.0798,-4.075,-4.0746,-4.0741,-4.0736,-4.0741,-4.0806,-4.0808,-4.0809,-4.081,0,-4.0159,-4.0166,-4.022,-4.0277,-4.0321,-4.0366,-4.041,-4.044,-4.046,-4.0504,-4.0567,-4.0606,-4.0684,-4.0745,-4.0804,-4.083,-4.0823,-4.0825,-4.084,-4.0837,-4.0827,-4.0832,-4.0668,-4.082,-4.0819,-4.0819,-4.0818,-4.0818,-4.0247,-4.0293,-4.0338,-4.0397,-4.0432,-4.0473,-4.052,-4.0544,-4.0598,-4.0662,-4.0667,-4.0736,-4.078,-4.0859,-4.0888,-4.0942,-4.0926,-4.0948,-4.0953,-4.0958,-4.0961,-4.082,-4.0953,-4.0953,-4.0953,-4.0952,-4.0952,0,-4.0371,-4.0399,-4.0454,-4.0515,-4.0562,-4.0552,-4.06,-4.064,-4.0701,-4.0743,-4.0792,-4.0866,-4.0925,-4.0958,-4.1018,-4.1055,-4.1053,-4.107,-4.1066,-4.1072,-4.0973,-4.0954,-4.107,-4.107,-4.107,-4.107,-4.107,-4.107,-4.0441,-4.052,-4.0533,-4.0628,-4.0656,-4.0723,-4.0751,-4.0789,-4.0823,-4.0905,-4.0954,-4.0976,-4.1014,-4.1076,-4.1131,-4.1139,-4.116,-4.1179,-4.1185,-4.1091,-4.1079,-4.1068,-4.1049,-4.1184,-4.1184,-4.1279,-4.128,-4.128]},{"header":{"parameterUnit":"m.s-1","parameterCategory":1,"la1":30.2991,"la2":30.254,"lo1":-89.0895,"lo2":-89.0444,"dy":0.0017,"dx":0.0017,"nx":28,"ny":28,"refTime":"2024-04-22T09:00:00:Z","depth":0,"parameterNumber":3,"parameterNumberName":"V-component_of_WINDS"},"data":[0,0,0,0,0,0,0,0,0,0,0,0,0,0,0,0,0,0,0,0,0,0,0,0,0,0,0,0,0,0,0,0,0,0,0,0,0,0,0,0,0,0,0,0,0,0,0,0,0,0,0,0,0,0,0,0,0,0,2.5367,2.5367,0,2.5409,2.5409,2.541,2.5366,2.5364,2.5362,2.5361,2.5402,2.5404,2.5407,0,0,0,0,0,0,0,0,0,0,0,0,0,2.5247,2.5249,2.5367,2.5367,2.5368,2.5409,2.5409,2.541,2.5366,2.5364,2.5362,2.536,2.5401,2.5404,2.5407,0,0,0,0,0,0,0,0,0,0,0,0,0,2.5295,2.525,2.5367,2.5351,2.535,2.5409,2.5409,2.541,2.5366,2.5364,2.5361,2.5359,2.54,2.5404,2.5408,2.5484,0,0,2.542,2.5422,0,0,0,0,0,0,0,0,2.5292,2.5299,2.5353,2.5352,2.5351,2.5379,2.5382,2.5435,2.5367,2.536,2.5361,2.5358,2.5396,2.54,2.5414,2.5485,2.5487,2.542,2.5423,2.5424,2.5426,0,0,0,0,0,0,0,2.5289,2.5297,2.5383,2.5353,2.5352,2.5341,2.5345,2.5392,2.5392,2.536,2.5357,2.5363,2.5395,2.541,2.5414,2.5488,2.542,2.5424,2.5426,2.5428,2.5625,2.5627,0,0,0,0,0,0,2.5287,2.5295,2.5382,2.5385,2.5315,2.5345,2.535,2.5373,2.5391,2.5392,2.5365,2.5361,2.5404,2.541,2.5416,2.5506,2.5424,2.5428,2.543,2.5622,2.5625,2.5628,0,0,0,0,0,0,2.5285,2.5296,2.538,2.5339,2.5349,2.535,2.5376,2.5375,2.539,2.5395,2.5394,2.538,2.5403,2.541,2.5467,2.5507,2.543,2.5434,2.5619,2.5623,2.5627,2.5688,0,0,0,0,0,0,2.5282,2.5295,2.5324,2.534,2.5351,2.5432,2.5379,2.5378,2.5397,2.5392,2.5409,2.5409,2.5401,2.5462,2.5471,2.5511,2.5437,2.5615,2.562,2.5625,2.5682,2.5693,2.5703,0,0,0,0,0,2.5278,2.5339,2.5326,2.5337,2.5388,2.5434,2.544,2.543,2.54,2.543,2.5433,2.5409,2.5501,2.5468,2.5478,2.552,2.5612,2.5619,2.5625,2.5677,2.5691,2.5703,0,0,0,0,0,0,2.5326,2.5341,2.5326,2.5394,2.5414,2.5427,2.5463,2.5445,2.5473,2.5466,2.5452,2.5456,2.5517,2.5524,2.5487,2.5595,2.5552,2.5561,2.5588,2.5601,2.5611,2.5608,2.544,0,0,0,0,0,2.5346,2.5383,2.5393,2.5452,2.5462,2.5461,2.5481,2.5472,2.5491,2.5498,2.5506,2.5525,2.5558,2.558,2.5611,2.5683,2.5686,2.5717,2.5727,2.5736,2.5744,2.5783,2.5797,2.5649,2.5649,2.5649,0,0,2.5384,2.5397,2.5421,2.5462,2.5476,2.5514,2.5468,2.551,2.5539,2.5504,2.5559,2.5566,2.5586,2.5651,2.568,2.5659,2.5785,2.5744,2.5751,2.5754,2.5791,2.5805,2.5817,2.5653,2.5653,2.5652,0,0,2.5475,2.5488,2.5539,2.5555,2.5577,2.5576,2.5588,2.5604,2.5607,2.5663,2.5638,2.5671,2.5729,2.5744,2.5759,2.5858,2.5837,2.5869,2.5923,2.5962,2.5973,2.5983,2.6019,2.6031,2.5876,2.5876,2.5876,0,2.5521,2.5578,2.5568,2.5613,2.5631,2.5604,2.5655,2.567,2.57,2.5714,2.569,2.5762,2.5774,2.5843,2.5867,2.588,2.5894,2.5866,2.5973,2.5983,2.5992,2.6025,2.6039,2.588,2.588,2.5879,2.5879,0,2.5633,2.5674,2.5712,2.5744,2.5767,2.5815,2.5811,2.5836,2.5826,2.5827,2.5884,2.5897,2.593,2.5946,2.5936,2.6014,2.6,2.5975,2.5931,2.601,2.6041,2.6054,2.5885,2.5884,2.5883,2.5882,0,0,2.5754,2.5781,2.5795,2.581,2.5832,2.5863,2.591,2.5944,2.5965,2.5988,2.6026,2.6077,2.6054,2.6071,2.6062,2.6096,2.6174,2.6067,2.6067,2.6086,2.6261,2.628,2.6295,2.6161,2.6163,2.6165,2.626,0,2.5846,2.5928,2.5921,2.5998,2.6035,2.601,2.6051,2.6069,2.6073,2.6104,2.6107,2.6143,2.611,2.6121,2.6153,2.6158,2.6209,2.6151,2.6196,2.6198,2.6191,2.6311,2.6331,2.642,2.6272,2.6274,2.6275,0,2.5963,2.5991,2.6073,2.6091,2.6106,2.6143,2.6174,2.6205,2.6225,2.6225,2.6246,2.6231,2.6278,2.6235,2.6299,2.626,2.6278,2.6283,2.6287,2.629,2.6241,2.6317,2.6448,2.6461,2.6294,2.6293,2.6291,0,2.6043,2.6101,2.6158,2.6171,2.6193,2.622,2.6231,2.6249,2.627,2.6297,2.631,2.6342,2.6359,2.6384,2.6379,2.6347,2.6445,2.64,2.6446,2.6446,2.6466,2.6465,2.6601,2.6479,2.6479,2.6479,2.6479,0,2.6146,2.6197,2.6194,2.6229,2.6285,2.6277,2.6333,2.634,2.6357,2.6392,2.6372,2.6406,2.6397,2.643,2.6426,2.6481,2.6488,2.649,2.6488,2.6491,2.6491,2.6502,2.6496,2.6482,2.6482,2.6481,2.648,0,2.6244,2.6245,2.6305,2.6322,2.6328,2.6369,2.6383,2.6416,2.6418,2.6463,2.6473,2.6476,2.6515,2.6512,2.6555,2.6553,2.662,2.6611,2.6613,2.6611,2.6656,2.6652,2.6804,2.6823,2.6689,2.6691,2.6692,0,2.6309,2.6348,2.637,2.6393,2.6406,2.6443,2.6464,2.6458,2.6481,2.6508,2.6538,2.6575,2.6603,2.6666,2.6672,2.6705,2.6696,2.6747,2.6701,2.6703,2.6697,2.6694,2.6698,2.6756,2.6758,2.6759,2.676,0,2.6425,2.6424,2.6456,2.649,2.6517,2.6542,2.6565,2.6585,2.6581,2.6608,2.6648,2.6671,2.6715,2.6752,2.6784,2.6794,2.6776,2.6775,2.6787,2.679,2.679,2.679,2.6637,2.6771,2.677,2.6769,2.6768,2.6768,2.6508,2.6542,2.6563,2.66,2.6618,2.664,2.6672,2.6679,2.6712,2.6749,2.6743,2.6787,2.6807,2.6848,2.6862,2.6896,2.6878,2.6895,2.69,2.6904,2.6909,2.6785,2.6902,2.6902,2.6901,2.6901,2.6901,0,2.6622,2.6635,2.667,2.6704,2.6733,2.6716,2.6741,2.6767,2.6806,2.6827,2.6856,2.6902,2.6938,2.6948,2.6982,2.7008,2.7001,2.7017,2.7015,2.7018,2.6924,2.691,2.7022,2.7022,2.7022,2.7022,2.7022,2.7022,2.6685,2.6741,2.6743,2.6808,2.682,2.6864,2.688,2.6901,2.6917,2.697,2.7,2.7006,2.7023,2.7058,2.7091,2.7092,2.7106,2.7126,2.7124,2.7036,2.7024,2.7012,2.6999,2.7129,2.7129,2.7215,2.7216,2.7216]}]]